Location: Unspecified
(42.1900°N, 71.3291°W)
Time: 07:22:06
(UTC-04:00)

Resurs 1-4 Rocket - Visible Passes

Search period start: 29 May 2017 00:00
Search period end: 08 June 2017 00:00
Orbit: 800 x 814 km, 98.5° (Epoch: 28 May)

Date Brightness Start Highest point End Pass type
(mag) Time Alt. Az. Time Alt. Az. Time Alt. Az.
29 May 2.6 02:50:25 10° NNE 02:55:38 54° E 02:58:49 23° S visible
29 May 3.6 04:31:10 10° NNW 04:35:03 21° WNW 04:38:57 10° WSW visible
30 May 3.4 02:26:12 10° NNE 02:30:58 32° E 02:33:59 19° SSE visible
30 May 3.1 04:06:02 10° N 04:10:44 33° WNW 04:15:04 12° SW visible
31 May 4.1 02:02:22 10° NE 02:06:11 20° E 02:09:09 13° SE visible
31 May 2.4 03:41:09 10° N 03:46:20 54° WNW 03:50:14 17° SW visible
01 Jun 4.5 01:39:39 10° ENE 01:41:19 11° E 01:43:00 10° ESE visible
01 Jun 2.1 03:16:29 10° NNE 03:21:50 88° WNW 03:25:24 22° SSW visible
02 Jun 2.6 02:52:00 10° NNE 02:57:15 56° E 03:00:34 22° S visible
02 Jun 3.7 04:32:50 10° NNW 04:36:39 20° WNW 04:40:28 10° WSW visible
03 Jun 3.4 02:27:45 10° NNE 02:32:34 34° E 02:35:42 19° SSE visible
03 Jun 3.1 04:07:39 10° N 04:12:20 32° WNW 04:16:48 11° SW visible
04 Jun 4.1 02:03:53 10° NE 02:07:49 21° E 02:10:52 13° SE visible
04 Jun 2.5 03:42:46 10° N 03:47:56 52° WNW 03:51:57 16° SW visible
05 Jun 4.5 01:40:59 10° ENE 01:42:57 12° E 01:44:55 10° ESE visible
05 Jun 2.1 03:18:04 10° NNE 03:23:26 85° WNW 03:27:06 21° SSW visible
06 Jun 2.5 02:53:35 10° NNE 02:58:52 59° E 03:02:16 22° S visible
06 Jun 3.7 04:34:29 10° NNW 04:38:13 20° WNW 04:41:57 10° WSW visible
07 Jun 3.3 02:29:19 10° NNE 02:34:11 35° E 02:37:25 19° SSE visible
07 Jun 3.2 04:09:17 10° N 04:13:55 31° WNW 04:18:29 10° SW visible
